STARLINK-30573, 58058

Orbit data source: Space-Track

STARLINK-30573, 58058 is a payload satellite owned by SpaceX/Seattle (US) in LEO that was launched on Fri, 13 Oct 2023 UTC via an FALCON 9 launch vehicle from the Air Force Eastern Test Range (AFETR). Payload-class satellites include a variety of spacecraft equipped with specific instruments for various scientific and technological missions. These include communications satellites like Starlink; space stations such as the ISS; scientific satellites like the Hubble; Earth observation satellites from companies like Planet Labs, Umbra, and HawkEye 360; GPS; miniature CubeSats for education and research; and military/defense satellites.

Loading next visibility...
Identifier
58058, 2023-158H
Orbit
LEO
Country
Flag of USUS
Related business
Manufacturer
SpaceX/Seattle
Mission
Operational Commercial Communications
Bus & Motor
STARLINK V2M, Unknown motor
Mass
730 kg wet, ~700 kg dry
Launch date (UTC)
2023-10-13 (3 years ago)
Launch vehicle
FALCON 9
Launch site
Air Force Eastern Test Range (AFETR)
Object type
Payload
Rocket body
Debris
Shape & HBR
Box + 2 Pan, 17.7 m
Radar Cross Section
33.884 m², Large (>1 m²)

Expand to show TLE details & history
Last TLE update: 2 days ago

TLE from 2 days ago
0 STARLINK-30573
1 58058U 23158H   26171.03726153  .00000342  00000-0  21966-4 0  9996
2 58058  43.0029 168.9622 0001491 276.4874  83.5808 15.27584833149229
Epoch: 2026-06-20T00:53Z
TLE epoch observation values (Epoch: 2026-06-20T00:53:39.396Z)
Latitude
Longitude
-112.70959°
Altitude
482.696 km
Speed
7.626 km/s
True Right ascension
11h 15m 50s
True Declination
0° 00' 00"
Sunlit
Object was in daylight at epoch
Visualization orbit readout
Latitude
Unknown
Longitude
Unknown
Altitude
Unknown
Speed
Unknown
Apparent Right ascension
Unknown
Apparent Declination
Unknown
Sunlit
N/A
Visualization observer readout
Local Sidereal Time
21:31:33
Azimuth
Unknown
Elevation
Unknown
Doppler factor
Unknown
Orbital elements
Apogee altitude
486.003 km
Perigee altitude
483.956 km
Semi-major axis
6,863.116 km
Eccentricity
0.00015
Inclination
43.0029°
RAAN
168.9622°
Arg. of periapsis
276.4874°
True anomaly
83.59778°
Mean anomaly
83.5808°
Eccentric anomaly
83.58929°
Mean motion
3.81734 °/min
Orbital period
94.31 mins
BSTAR
0.000021966
Loading maneuver chart data...
Computing Atmospheric mass density...
Loading historical data...
Loading historical data...
Loading historical data...
Loading historical data...
Loading historical data...
Loading historical data...
Loading historical data...

Documentation

Showing up to 5 results
|